Weather History for Farmington, MO

Change the Weather History Date:

Wednesday, December 19, 2012

  Actual Average Record
Temperature  
Mean Temperature 42 °F -  
Max Temperature 55 °F 40 °F 62 °F (1997)
Min Temperature 28 °F 23 °F 3 °F (2000)
Degree Days  
Heating Degree Days 24    
Moisture  
Dew Point 38 °F    
Average Humidity 84    
Maximum Humidity 94    
Minimum Humidity 70    
Precipitation  
Precipitation 0.16 in - - ()
Sea Level Pressure  
Sea Level Pressure 29.85 in    
Wind  
Wind Speed 4 mph (ESE)    
Max Wind Speed 15 mph    
Max Gust Speed 24 mph    
Visibility 8 miles    
Events Thunderstorm    
Averages and records for this station are not official NWS values.
T = Trace of Precipitation, MM = Missing Value Source: NWS Daily Summary

Daily Weather History Graph

Daily Weather History Graph

Search for Another Location

Airport:

Trip Planner

Search our weather history database for the weather conditions in past years. The results will help you decide how hot, cold, wet, or windy it might be!

Date:

Astronomy

Dec. 19, 2012 Rise Set
Actual Time 7:12 AM CST 4:45 PM CST
Civil Twilight 6:43 AM CST 5:15 PM CST
Nautical Twilight 6:10 AM CST 5:48 PM CST
Astronomical Twilight 5:38 AM CST 6:20 PM CST
Moon 11:28 AM CST No Moon Set
Length of Visible Light 10h 31m
Length of Day
9h 33m
Waxing Crescent, 45% of the Moon is Illuminated
Dec 19
Waxing Crescent
Dec 19
First Quarter
Dec 28
Full
Jan 4
Last Quarter
Jan 11
New

Hourly Weather History & Observations

Time (CST) Temp. Windchill Dew Point Humidity Pressure Visibility Wind Dir Wind Speed Gust Speed Precip Events Conditions
12:15 AM 35.6 °F - 30.2 °F 81% 29.91 in 7.0 mi Calm Calm - N/A   Clear
12:35 AM 32.0 °F - 28.4 °F 87% 29.92 in 7.0 mi Calm Calm - N/A   Clear
12:55 AM 33.8 °F - 30.2 °F 87% 29.92 in 8.0 mi Calm Calm - N/A   Clear
1:15 AM 30.2 °F - 28.4 °F 93% 29.93 in 8.0 mi Calm Calm - N/A   Clear
1:35 AM 30.2 °F - 28.4 °F 93% 29.93 in 7.0 mi Calm Calm - N/A   Clear
1:55 AM 30.2 °F - 26.6 °F 86% 29.93 in 7.0 mi Calm Calm - N/A   Clear
2:15 AM 32.0 °F - 30.2 °F 93% 29.94 in 7.0 mi Calm Calm - N/A   Clear
2:35 AM 28.4 °F - 24.8 °F 86% 29.94 in 5.0 mi Calm Calm - N/A   Clear
2:55 AM 30.2 °F 24.3 °F 28.4 °F 93% 29.94 in 8.0 mi NNE 5.8 mph - N/A   Clear
3:15 AM 33.8 °F - 28.4 °F 81% 29.95 in 10.0 mi Calm Calm - N/A   Clear
3:35 AM 30.2 °F 24.3 °F 26.6 °F 86% 29.94 in 9.0 mi NNE 5.8 mph - N/A   Clear
3:55 AM 33.8 °F 28.6 °F 30.2 °F 87% 29.94 in 10.0 mi NE 5.8 mph - N/A   Clear
4:15 AM 33.8 °F 30.8 °F 30.2 °F 87% 29.94 in 10.0 mi East 3.5 mph - N/A   Clear
4:35 AM 33.8 °F 27.7 °F 30.2 °F 87% 29.94 in 10.0 mi NE 6.9 mph - N/A   Clear
4:55 AM 33.8 °F 29.6 °F 30.2 °F 87% 29.94 in 10.0 mi ENE 4.6 mph - N/A   Clear
5:15 AM 33.8 °F 30.8 °F 30.2 °F 87% 29.96 in 8.0 mi NE 3.5 mph - N/A   Clear
5:35 AM 33.8 °F 30.8 °F 30.2 °F 87% 29.96 in 8.0 mi ENE 3.5 mph - N/A   Clear
5:55 AM 33.8 °F 30.8 °F 30.2 °F 87% 29.97 in 8.0 mi East 3.5 mph - N/A   Clear
6:15 AM 33.8 °F 27.7 °F 30.2 °F 87% 29.95 in 7.0 mi East 6.9 mph - N/A   Clear
6:35 AM 33.8 °F - 30.2 °F 87% 29.96 in 7.0 mi Calm Calm - N/A   Clear
6:55 AM 33.8 °F 30.8 °F 28.4 °F 81% 29.96 in 8.0 mi ESE 3.5 mph - N/A   Clear
7:15 AM 33.8 °F - 28.4 °F 81% 29.95 in 6.0 mi Calm Calm - N/A   Clear
7:35 AM 33.8 °F 30.8 °F 30.2 °F 87% 29.96 in 6.0 mi East 3.5 mph - N/A   Clear
7:55 AM 33.8 °F 29.6 °F 30.2 °F 87% 29.96 in 6.0 mi East 4.6 mph - N/A   Clear
8:15 AM 33.8 °F 28.6 °F 30.2 °F 87% 29.96 in 6.0 mi East 5.8 mph - N/A   Clear
8:35 AM 35.6 °F 31.7 °F 30.2 °F 81% 29.96 in 6.0 mi ESE 4.6 mph - N/A   Clear
8:55 AM 35.6 °F 31.7 °F 30.2 °F 81% 29.96 in 7.0 mi East 4.6 mph - N/A   Clear
9:15 AM 37.4 °F 32.1 °F 32.0 °F 81% 29.98 in 7.0 mi East 6.9 mph - N/A   Clear
9:35 AM 37.4 °F 32.1 °F 32.0 °F 81% 29.97 in 8.0 mi East 6.9 mph - N/A   Clear
9:55 AM 39.2 °F 34.2 °F 33.8 °F 81% 29.96 in 8.0 mi East 6.9 mph - N/A   Clear
10:15 AM 39.2 °F 33.0 °F 33.8 °F 81% 29.97 in 9.0 mi East 9.2 mph - N/A   Clear
10:35 AM 42.8 °F 38.6 °F 33.8 °F 70% 29.96 in 10.0 mi East 6.9 mph - N/A   Clear
10:55 AM 42.8 °F 38.6 °F 35.6 °F 76% 29.96 in 10.0 mi East 6.9 mph - N/A   Clear
11:15 AM 44.6 °F 39.7 °F 35.6 °F 71% 29.94 in 10.0 mi East 9.2 mph - N/A   Clear
11:35 AM 44.6 °F 39.2 °F 35.6 °F 71% 29.92 in 10.0 mi East 10.4 mph - N/A   Clear
11:55 AM 44.6 °F 39.2 °F 35.6 °F 71% 29.91 in 10.0 mi East 10.4 mph - N/A   Clear
12:15 PM 44.6 °F 39.2 °F 37.4 °F 76% 29.90 in 10.0 mi ENE 10.4 mph - N/A   Clear
12:35 PM 46.4 °F 41.5 °F 37.4 °F 71% 29.88 in 10.0 mi East 10.4 mph - N/A   Mostly Cloudy
12:55 PM 46.4 °F 41.5 °F 37.4 °F 71% 29.87 in 10.0 mi East 10.4 mph - N/A   Overcast
1:15 PM 46.4 °F 41.9 °F 37.4 °F 71% 29.86 in 10.0 mi East 9.2 mph - N/A   Overcast
1:35 PM 46.4 °F 41.9 °F 37.4 °F 71% 29.84 in 10.0 mi East 9.2 mph - N/A   Overcast
1:55 PM 46.4 °F 42.9 °F 37.4 °F 71% 29.84 in 10.0 mi East 6.9 mph - N/A   Overcast
2:15 PM 46.4 °F 42.4 °F 39.2 °F 76% 29.84 in 10.0 mi East 8.1 mph - N/A   Overcast
2:35 PM 46.4 °F 41.5 °F 39.2 °F 76% 29.84 in 10.0 mi ESE 10.4 mph - N/A   Overcast
2:55 PM 48.2 °F - 41.0 °F 76% 29.84 in 10.0 mi SE 10.4 mph - N/A   Overcast
3:15 PM 48.2 °F - 42.8 °F 82% 29.83 in 9.0 mi SE 9.2 mph - N/A   Overcast
3:35 PM 48.2 °F - 42.8 °F 82% 29.83 in 10.0 mi SE 9.2 mph - N/A   Overcast
3:55 PM 48.2 °F - 42.8 °F 82% 29.83 in 10.0 mi SE 8.1 mph - N/A   Overcast
4:15 PM 48.2 °F - 42.8 °F 82% 29.80 in 5.0 mi ESE 9.2 mph - N/A   Overcast
4:35 PM 48.2 °F - 44.6 °F 87% 29.82 in 3.0 mi ESE 4.6 mph - N/A   Overcast
4:55 PM 46.4 °F 43.5 °F 44.6 °F 93% 29.81 in 1.8 mi ESE 5.8 mph - N/A   Overcast
5:15 PM 46.4 °F 45.2 °F 44.6 °F 93% 29.80 in 1.5 mi SE 3.5 mph - N/A   Overcast
5:35 PM 48.2 °F - 46.4 °F 93% 29.79 in 1.2 mi SE 10.4 mph - N/A   Overcast
5:55 PM 48.2 °F - 46.4 °F 93% 29.78 in 1.8 mi SE 8.1 mph - N/A   Overcast
6:15 PM 50.0 °F - 48.2 °F 94% 29.78 in 3.0 mi SE 5.8 mph - N/A   Overcast
6:35 PM 50.0 °F - 48.2 °F 94% 29.77 in 3.0 mi SSE 3.5 mph - N/A   Overcast
6:55 PM 51.8 °F - 48.2 °F 88% 29.76 in 5.0 mi SSE 6.9 mph - N/A   Overcast
7:15 PM 51.8 °F - 48.2 °F 88% 29.74 in 5.0 mi SSE 9.2 mph - N/A   Overcast
7:35 PM 51.8 °F - 50.0 °F 94% 29.74 in 7.0 mi SSE 5.8 mph - N/A   Overcast
7:55 PM 51.8 °F - 50.0 °F 94% 29.74 in 8.0 mi SSE 6.9 mph - N/A   Overcast
8:15 PM 51.8 °F - 50.0 °F 94% 29.73 in 9.0 mi SE 6.9 mph - N/A   Overcast
8:35 PM 53.6 °F - 50.0 °F 88% 29.71 in 9.0 mi SE 6.9 mph - 0.01 in   Overcast
8:55 PM 53.6 °F - 51.8 °F 94% 29.70 in 10.0 mi SE 5.8 mph - 0.01 in   Overcast
9:15 PM 53.6 °F - 50.0 °F 88% 29.70 in 10.0 mi SSE 5.8 mph - N/A   Overcast
9:35 PM 53.6 °F - 50.0 °F 88% 29.68 in 10.0 mi SSE 10.4 mph - N/A   Overcast
9:55 PM 53.6 °F - 48.2 °F 82% 29.67 in 10.0 mi SSE 10.4 mph - N/A   Overcast
10:15 PM 55.4 °F - 48.2 °F 77% 29.65 in 10.0 mi South 11.5 mph - N/A   Overcast
10:35 PM 55.4 °F - 46.4 °F 72% 29.63 in 10.0 mi SSE 10.4 mph - N/A   Overcast
10:55 PM 53.6 °F - 48.2 °F 82% 29.62 in 9.0 mi SSE 13.8 mph - 0.12 in Thunderstorm Thunderstorm
11:15 PM 53.6 °F - 48.2 °F 82% 29.60 in 10.0 mi SSE 10.4 mph 16.1 mph 0.01 in Thunderstorm Mostly Cloudy
11:35 PM 53.6 °F - 46.4 °F 77% 29.59 in 10.0 mi South 13.8 mph 20.7 mph 0.02 in   Overcast
11:55 PM 53.6 °F - 48.2 °F 82% 29.56 in 10.0 mi SSE 15.0 mph 24.2 mph 0.03 in   Mostly Cloudy